[[{"header":{"parameterUnit":"m.s-1","parameterCategory":1,"la1":30.2992,"la2":30.254,"lo1":-89.0895,"lo2":-89.0443,"dy":0.0025,"dx":0.0025,"nx":19,"ny":19,"refTime":"2026-04-28T03:00:00:Z","depth":0,"parameterNumber":2,"parameterNumberName":"U-component_of_WINDS"},"data":[0,0,0,-1.0776,-1.0774,-1.0698,-1.0698,-1.0611,-1.0611,0,0,0,0,0,0,0,0,0,0,0,-1.0803,-1.0803,-1.0776,-1.0774,-1.0699,-1.0698,-1.0611,-1.0611,0,0,0,0,0,0,0,0,0,0,0,-1.0803,-1.0803,-1.0802,-1.0774,-1.0699,-1.0698,-1.0612,-1.0665,0,0,0,0,0,0,0,0,0,0,-1.0737,-1.0767,-1.0803,-1.0802,-1.0773,-1.0699,-1.0698,-1.0668,-1.0662,-1.0649,0,-1.0639,0,-1.0623,-1.0605,-1.0605,0,0,0,-1.077,-1.0772,-1.0747,-1.0802,-1.0773,-1.0699,-1.0732,-1.0664,-1.0658,-1.0642,-1.0638,-1.0634,-1.0622,-1.0605,-1.0604,-1.0542,-1.0542,0,0,-1.0775,-1.0793,-1.0752,-1.0743,-1.0755,-1.0734,-1.0729,-1.066,-1.0657,-1.0637,-1.0632,-1.062,-1.0604,-1.0604,-1.0542,-1.0542,0,0,0,-1.0789,-1.0796,-1.0772,-1.0747,-1.0733,-1.0732,-1.0726,-1.066,-1.0651,-1.0631,-1.0619,-1.0604,-1.0603,-1.0542,-1.0542,-1.0553,0,0,0,-1.0791,-1.0804,-1.0774,-1.0784,-1.0734,-1.0695,-1.0728,-1.0656,-1.0647,-1.062,-1.0604,-1.0602,-1.0542,-1.0542,-1.0553,-1.0555,0,0,0,-1.0806,-1.0806,-1.0796,-1.0785,-1.0753,-1.0696,-1.0683,-1.0654,-1.0641,-1.0605,-1.0602,-1.0542,-1.0542,-1.0553,-1.0555,-1.0543,0,0,0,-1.0828,-1.0808,-1.0797,-1.077,-1.0754,-1.0703,-1.0683,-1.0644,-1.0615,-1.0603,-1.0542,-1.0542,-1.0553,-1.0555,-1.0543,-1.0536,-1.0535,0,0,-1.0813,-1.0807,-1.079,-1.0778,-1.0733,-1.0713,-1.067,-1.0627,-1.0608,-1.0565,-1.0563,-1.0553,-1.0555,-1.0543,-1.0523,-1.0523,0,0,0,-1.0791,-1.0779,-1.0763,-1.0736,-1.0701,-1.0672,-1.0633,-1.0617,-1.058,-1.0589,-1.0545,-1.0546,-1.0538,-1.0534,-1.0533,-1.0526,-1.0541,-1.0541,-1.0541,-1.0796,-1.0771,-1.0741,-1.0707,-1.0681,-1.064,-1.0617,-1.0588,-1.0572,-1.0562,-1.0549,-1.054,-1.0536,-1.0535,-1.0527,-1.0544,-1.0544,-1.0544,-1.0544,-1.0772,-1.075,-1.0728,-1.0691,-1.0665,-1.0634,-1.0594,-1.0583,-1.0551,-1.0548,-1.054,-1.0539,-1.0535,-1.0527,-1.0545,-1.0544,-1.0544,-1.0544,-1.0544,-1.0772,-1.0757,-1.0737,-1.0694,-1.0664,-1.0631,-1.06,-1.0578,-1.0557,-1.0549,-1.0533,-1.0533,-1.0529,-1.0543,-1.0543,-1.0543,-1.0543,-1.0543,-1.0543,-1.078,-1.0757,-1.0733,-1.0695,-1.0674,-1.0643,-1.0602,-1.0581,-1.0552,-1.0538,-1.0538,-1.0523,-1.0539,-1.0544,-1.0542,-1.0542,-1.0542,-1.0542,-1.0542,-1.0764,-1.0764,-1.0728,-1.0706,-1.0659,-1.063,-1.0602,-1.056,-1.054,-1.0525,-1.0511,-1.0527,-1.052,-1.052,-1.0524,-1.0517,-1.0517,-1.0517,-1.0517,-1.0764,-1.0758,-1.0715,-1.0683,-1.0648,-1.0619,-1.0578,-1.0546,-1.0513,-1.0498,-1.0496,-1.0499,-1.0501,-1.0492,-1.0493,-1.0496,-1.0482,-1.0482,-1.0482,-1.0753,-1.0742,-1.0712,-1.0678,-1.0639,-1.0606,-1.0567,-1.0531,-1.0493,-1.048,-1.0487,-1.0488,-1.0492,-1.0495,-1.0482,-1.0484,-1.0489,0,0]},{"header":{"parameterUnit":"m.s-1","parameterCategory":1,"la1":30.2992,"la2":30.254,"lo1":-89.0895,"lo2":-89.0443,"dy":0.0025,"dx":0.0025,"nx":19,"ny":19,"refTime":"2026-04-28T03:00:00:Z","depth":0,"parameterNumber":3,"parameterNumberName":"V-component_of_WINDS"},"data":[0,0,0,3.3512,3.3511,3.3439,3.3438,3.3364,3.3364,0,0,0,0,0,0,0,0,0,0,0,3.3548,3.3548,3.3512,3.3511,3.3439,3.3438,3.3365,3.3364,0,0,0,0,0,0,0,0,0,0,0,3.3548,3.3548,3.3548,3.3511,3.3439,3.3438,3.3365,3.3412,0,0,0,0,0,0,0,0,0,0,3.3479,3.3526,3.3548,3.3548,3.3511,3.3439,3.3438,3.3414,3.3409,3.3406,0,3.3409,0,3.3386,3.336,3.336,0,0,0,3.35,3.353,3.3498,3.3548,3.351,3.3439,3.3468,3.3411,3.3405,3.34,3.3408,3.3405,3.3385,3.336,3.336,3.3386,3.3387,0,0,3.3504,3.3542,3.3502,3.3495,3.3511,3.3471,3.3466,3.3407,3.3418,3.3408,3.3403,3.3383,3.336,3.3359,3.3386,3.3387,0,0,0,3.3523,3.3545,3.3514,3.3499,3.3485,3.3469,3.3464,3.3421,3.3407,3.3402,3.3383,3.3359,3.3359,3.3385,3.3386,3.3457,0,0,0,3.3525,3.3556,3.3516,3.3539,3.3486,3.3452,3.3479,3.3412,3.3404,3.3383,3.3359,3.3358,3.3384,3.3386,3.3453,3.3484,0,0,0,3.3548,3.3558,3.3553,3.3541,3.3511,3.3452,3.3436,3.3409,3.3393,3.336,3.3358,3.3384,3.3385,3.345,3.3479,3.3503,0,0,0,3.3582,3.3615,3.3555,3.3584,3.3512,3.3497,3.3436,3.3422,3.3402,3.3359,3.3384,3.3386,3.3449,3.3475,3.35,3.3532,3.3549,0,0,3.3645,3.3624,3.3638,3.3582,3.3588,3.3505,3.352,3.3465,3.3425,3.3401,3.3401,3.3455,3.3478,3.3503,3.3626,3.364,0,0,0,3.3671,3.3681,3.3675,3.366,3.362,3.3588,3.3527,3.3506,3.3484,3.3422,3.3468,3.3481,3.3494,3.3507,3.3519,3.3527,3.3393,3.3393,3.3393,3.3814,3.3764,3.3784,3.3725,3.3711,3.3648,3.3631,3.3592,3.3544,3.3556,3.3549,3.363,3.3647,3.3656,3.3666,3.356,3.356,3.356,3.3561,3.3902,3.391,3.3846,3.3844,3.379,3.3785,3.3725,3.3691,3.3678,3.3631,3.3639,3.3594,3.3672,3.3678,3.3565,3.3565,3.3564,3.3563,3.3563,3.3992,3.3987,3.3962,3.3936,3.392,3.3857,3.3849,3.3798,3.375,3.3759,3.3747,3.3745,3.3739,3.3756,3.3757,3.3757,3.3757,3.3757,3.3758,3.4095,3.4065,3.4066,3.4027,3.401,3.3982,3.3919,3.39,3.3867,3.3831,3.383,3.3782,3.3689,3.3668,3.3762,3.3761,3.376,3.376,3.376,3.4206,3.4173,3.4174,3.4158,3.4108,3.4095,3.4031,3.3998,3.3975,3.3972,3.3921,3.386,3.3835,3.3825,3.3807,3.3931,3.3931,3.3931,3.3931,3.4283,3.4265,3.4255,3.4233,3.4205,3.4147,3.4148,3.4098,3.4041,3.4023,3.3997,3.3968,3.3961,3.394,3.3928,3.391,3.4058,3.4058,3.4058,3.4349,3.4326,3.4338,3.4285,3.4241,3.4205,3.4204,3.4178,3.4106,3.4062,3.4008,3.4003,3.3956,3.3943,3.3901,3.3883,3.385,0,0]}]]